FW1204 Weather Reports


Display with metric or nautical units.
time (UTC)temp
F
wind
direction
speed
MPH
gust
MPH
rain 1hr
in
rain 24hr
in
rain mn
in
humidity
%
barometer
mb
20260505024538 69 348 11.0 15.0 0.00 0.00 0.00 62 1002.2
20260505023037 70 360 1.0 4.0 0.00 0.00 0.00 60 1001.5
20260505021538 72 130 3.0 5.0 0.00 0.00 0.00 57 1001.3
20260505020041 72 130 1.0 3.0 0.00 0.00 0.00 58 1001.2
20260505014541 73 129 3.0 4.0 0.00 0.00 0.00 56 1001.0
20260505013035 73 129 2.0 3.0 0.00 0.00 0.00 57 1000.9
20260505011538 74 130 2.0 3.0 0.00 0.00 0.00 55 1000.6
20260505010036 75 130 2.0 4.0 0.00 0.00 0.00 54 1000.6
20260505004533 76 130 2.0 3.0 0.00 0.00 0.00 52 1000.7
20260505003034 77 130 2.0 4.0 0.00 0.00 0.00 50 1000.4
20260505001532 78 132 3.0 7.0 0.00 0.00 0.00 48 1000.6
20260505000043 79 123 6.0 9.0 0.00 0.00 0.00 46 1000.6
20260504234529 79 132 2.0 8.0 0.00 0.00 0.00 46 1000.5
20260504233029 80 360 6.0 10.0 0.00 0.00 0.00 43 1000.7
20260504231528 81 360 4.0 6.0 0.00 0.00 0.00 40 1000.8
20260504230028 81 360 3.0 6.0 0.00 0.00 0.00 39 1000.6
20260504224527 81 360 3.0 8.0 0.00 0.00 0.00 41 1000.5
20260504223027 82 360 4.0 10.0 0.00 0.00 0.00 39 1000.5
20260504221528 81 360 4.0 8.0 0.00 0.00 0.00 40 1000.4
20260504220040 81 360 5.0 10.0 0.00 0.00 0.00 41 1000.5
20260504214524 81 360 4.0 9.0 0.00 0.00 0.00 41 1000.7
20260504213022 82 360 5.0 9.0 0.00 0.00 0.00 40 1000.6
20260504211520 83 360 3.0 8.0 0.00 0.00 0.00 40 1000.9
20260504210019 83 130 3.0 8.0 0.00 0.00 0.00 36 1001.1
20260504204528 82 360 2.0 5.0 0.00 0.00 0.00 36 1001.2
20260504203015 82 360 2.0 9.0 0.00 0.00 0.00 35 1001.4
20260504201514 83 360 2.0 5.0 0.00 0.00 0.00 33 1001.6
20260504200012 84 360 4.0 9.0 0.00 0.00 0.00 35 1001.7
20260504194508 84 127 2.0 4.0 0.00 0.00 0.00 36 1001.8
20260504193005 83 360 4.0 9.0 0.00 0.00 0.00 35 1001.8
20260504191502 82 360 3.0 8.0 0.00 0.00 0.00 33 1002.0
20260504190006 82 360 3.0 5.0 0.00 0.00 0.00 35 1002.1
20260504184600 81 360 0.0 4.0 0.00 0.00 0.00 42 1002.1
20260504183102 80 27 0.0 4.0 0.00 0.00 0.00 39 1002.1
20260504181557 80 360 1.0 8.0 0.00 0.00 0.00 37 1002.1
20260504180136 80 360 3.0 6.0 0.00 0.00 0.00 42 1002.2
20260504174552 79 32 2.0 6.0 0.00 0.00 0.00 45 1002.3
20260504173049 78 360 3.0 10.0 0.00 0.00 0.00 44 1002.3
20260504171550 77 360 2.0 6.0 0.00 0.00 0.00 51 1002.2
20260504120108 58 360 6.0 12.0 0.00 0.00 0.00 70 1002.1
20260504081531 63 360 4.0 8.0 0.00 0.00 0.00 59 1003.3
20260504050006 62 360 0.0 0.0 0.00 0.00 0.00 65 1005.6
20260504044506 62 360 1.0 4.0 0.00 0.00 0.00 65 1005.7
20260504043005 64 360 3.0 6.0 0.00 0.00 0.00 63 1006.0
20260504041502 64 74 3.0 5.0 0.00 0.00 0.00 63 1006.3
20260504040003 64 360 5.0 9.0 0.00 0.00 0.00 63 1006.5
20260504034501 65 360 4.0 9.0 0.00 0.00 0.00 62 1006.6
20260504033106 65 360 5.0 10.0 0.00 0.00 0.00 61 1006.9
20260504031605 67 360 5.0 8.0 0.00 0.00 0.00 58 1006.9
20260504030058 67 360 3.0 8.0 0.00 0.00 0.00 57 1006.9